Hourly Data Report for October 30, 2019

All times are specified in Local Standard Time (LST). Add 1 hour to adjust for Daylight Saving Time where and when it is observed.

SEPT-ILES
QUEBEC
Current Station Operator: ECCC - MSC

50°13'00.000" N
66°15'00.000" W
52.60 m
7047914
71279
XZV

Download Data

Hourly Data (October 2019)
Hourly Data Report for October 30, 2019
TIME Temp Definition
°C
Dew Point Definition
°C
Rel Hum Definition
%
Wind Dir Definition
10's deg

Wind Spd Definition
km/h
Visibility Definition
km
Stn Press Definition
kPa
Hmdx Definition


Wind Chill Definition


Weather Definition


00:00 6.4 6.1 98 9 3   101.46     LegendNANA
01:00 6.7 6.4 98 11 5   101.41     LegendNANA
02:00 6.8 6.1 96 11 4   101.36     LegendNANA
03:00 6.7 6.0 95 12 5   101.30     LegendNANA
04:00 6.4 6.0 97 9 4   101.28     LegendNANA
05:00 6.7 6.0 95 10 4   101.22     LegendNANA
06:00 6.7 6.2 96 13 7   101.18     LegendNANA
07:00 6.5 6.1 97 11 4   101.19     LegendNANA
08:00 7.3 6.7 96 15 6   101.14     LegendNANA
09:00 8.6 7.4 93 25 12   101.13     LegendNANA
10:00 8.7 7.6 93 24 7   101.13     LegendNANA
11:00 11.2 7.2 77 27 14   101.14     LegendNANA
12:00 9.9 4.2 67 30 20   101.17     LegendNANA
13:00 9.8 3.2 63 31 16   101.25     LegendNANA
14:00 9.1 1.9 61 30 11   101.30     LegendNANA
15:00 8.6 1.6 61 31 11   101.40     LegendNANA
16:00 7.2 1.9 69 31 7   101.46     LegendNANA
17:00 6.0 1.0 70 31 8   101.51     LegendNANA
18:00 5.3 0.6 72 31 6   101.55     LegendNANA
19:00 4.1 0.5 77 30 7   101.61     LegendNANA
20:00 1.7 0.0 88 33 5   101.62     LegendNANA
21:00 1.0 -0.7 89 34 7   101.61     LegendNANA
22:00 2.4 -0.3 82 36 6   101.58     LegendNANA
23:00 1.3 -0.7 87 35 5   101.60     LegendNANA

Notes on Data Quality.

Legend

  • E = Estimated
  • M = Missing
  • NA = Not Available
Date modified: